Location: Archemont
(49.1579°N, 1.7598°E)
Time: 20:36:05
(UTC+00:00)

YAOGAN 17B - Visible Passes

Search period start: 15 July 2024 00:00
Search period end: 25 July 2024 00:00
Orbit: 817 x 1361 km, 63.4° (Epoch: 15 July)

Date Brightness Start Highest point End Pass type
(mag) Time Alt. Az. Time Alt. Az. Time Alt. Az.
15 Jul 7.2 20:54:29 10° NW 21:01:33 66° SW 21:09:20 11° SSE visible
15 Jul 8.8 22:46:48 10° WNW 22:51:10 17° WSW 22:55:44 10° SW visible
16 Jul 8.4 21:56:04 10° WNW 22:02:00 27° WSW 22:08:26 10° SSW visible
17 Jul 7.8 21:05:59 10° NW 21:12:41 42° WSW 21:20:06 10° S visible
18 Jul 7.4 20:16:10 10° NW 20:23:13 63° SW 20:31:07 10° SSE visible
18 Jul 9.0 22:08:42 10° WNW 22:12:47 16° WSW 22:17:03 10° SW visible
19 Jul 8.5 21:17:50 10° WNW 21:23:38 26° WSW 21:29:54 10° SSW visible
20 Jul 8.0 20:27:42 10° NW 20:34:20 40° WSW 20:41:41 10° S visible
21 Jul 9.1 21:30:37 10° WNW 21:34:23 15° WSW 21:38:19 10° SW visible
22 Jul 8.7 20:39:36 10° WNW 20:45:16 24° WSW 20:51:23 10° SSW visible
24 Jul 9.3 20:52:34 10° WNW 20:56:00 14° WSW 20:59:33 10° SW visible
